CW5554 Weather Reports


Display with metric or nautical units.
time (UTC)temp
F
wind
direction
speed
MPH
gust
MPH
rain 1hr
in
rain 24hr
in
rain mn
in
humidity
%
barometer
mb
20260505124012 59 35 4.0 11.0 0.00 0.00 0.00 69 1011.6
20260505123512 59 53 10.0 11.0 0.00 0.00 0.00 69 1011.7
20260505123012 59 22 4.0 10.0 0.00 0.00 0.00 71 1011.6
20260505121513 58 41 6.0 9.0 0.00 0.00 0.00 71 1011.7
20260505121013 58 55 3.0 9.0 0.00 0.00 0.00 69 1011.7
20260505120513 58 360 8.0 9.0 0.00 0.00 0.00 69 1011.7
20260505120012 59 82 2.0 14.0 0.00 0.00 0.00 69 1011.7
20260505115512 59 355 4.0 16.0 0.00 0.00 0.00 68 1011.7
20260505115012 59 66 9.0 16.0 0.00 0.00 0.00 68 1011.7
20260505114512 59 30 8.0 14.0 0.00 0.00 0.00 67 1011.7
20260505114012 59 36 0.0 13.0 0.00 0.00 0.00 69 1011.7
20260505113512 59 28 11.0 11.0 0.00 0.00 0.00 69 1011.8
20260505113012 59 360 3.0 12.0 0.00 0.00 0.00 69 1011.8
20260505112514 58 36 7.0 13.0 0.00 0.00 0.00 70 1011.9
20260505112012 58 11 4.0 13.0 0.00 0.00 0.00 70 1011.8
20260505111512 59 25 8.0 13.0 0.00 0.00 0.00 71 1011.9
20260505111012 58 5 6.0 17.0 0.00 0.00 0.00 73 1012.0
20260505110513 57 75 8.0 17.0 0.00 0.00 0.00 73 1012.0
20260505102012 56 48 6.0 11.0 0.00 0.00 0.00 76 1012.4
20260505101512 56 61 5.0 9.0 0.00 0.00 0.00 77 1012.3
20260505101013 56 294 4.0 10.0 0.00 0.00 0.00 77 1012.3
20260505100513 55 25 4.0 10.0 0.00 0.00 0.00 77 1012.4
20260505100012 55 350 5.0 10.0 0.00 0.00 0.00 78 1012.3
20260505095012 56 58 5.0 10.0 0.00 0.00 0.00 76 1012.4
20260505094512 56 10 2.0 11.0 0.00 0.00 0.00 76 1012.5
20260505094013 57 26 4.0 11.0 0.00 0.00 0.00 75 1012.5
20260505093513 56 32 2.0 11.0 0.00 0.00 0.00 77 1012.5
20260505093012 55 22 6.0 11.0 0.00 0.00 0.00 79 1012.4
20260505092512 55 5 8.0 11.0 0.00 0.00 0.00 78 1012.4
20260505092012 55 13 5.0 11.0 0.00 0.00 0.00 79 1012.4
20260505091512 54 38 4.0 13.0 0.00 0.00 0.00 79 1012.4
20260505091012 54 42 3.0 13.0 0.00 0.00 0.00 79 1012.5
20260505090512 54 43 4.0 11.0 0.00 0.00 0.00 80 1012.5
20260505090012 53 27 10.0 12.0 0.00 0.00 0.00 81 1012.5
20260505085012 53 336 8.0 11.0 0.00 0.00 0.00 82 1012.5
20260505084513 53 332 4.0 11.0 0.00 0.00 0.00 83 1012.5
20260505083012 52 25 8.0 9.0 0.00 0.00 0.00 85 1012.6
20260505082512 52 5 6.0 11.0 0.00 0.00 0.00 85 1012.7
20260505082012 52 9 3.0 12.0 0.00 0.00 0.00 84 1012.8
20260505081012 52 20 2.0 9.0 0.00 0.00 0.00 85 1012.7
20260505080512 52 19 7.0 9.0 0.00 0.00 0.00 86 1012.7
20260505080012 52 14 7.0 9.0 0.00 0.00 0.00 87 1012.6
20260505075512 52 30 4.0 11.0 0.00 0.00 0.00 87 1012.6
20260505075012 52 32 5.0 11.0 0.00 0.00 0.00 87 1012.6
20260505074512 52 18 8.0 10.0 0.00 0.00 0.00 88 1012.6
20260505073512 51 11 7.0 13.0 0.00 0.00 0.00 89 1012.7
20260505073012 51 22 6.0 11.0 0.00 0.00 0.00 89 1012.7
20260505072512 51 43 5.0 10.0 0.00 0.00 0.00 90 1012.7
20260505071512 51 54 2.0 11.0 0.00 0.00 0.00 91 1012.7
20260505071012 50 19 2.0 11.0 0.00 0.00 0.00 92 1012.6
20260505070512 50 34 8.0 13.0 0.00 0.00 0.00 92 1012.6
20260505065512 50 45 7.0 13.0 0.00 0.00 0.00 92 1012.7
20260505065014 49 13 7.0 13.0 0.00 0.00 0.00 93 1012.7
20260505064512 49 29 4.0 13.0 0.00 0.00 0.00 93 1012.6
20260505064012 49 10 8.0 11.0 0.00 0.00 0.00 93 1012.6
20260505063512 49 323 8.0 10.0 0.00 0.00 0.00 93 1012.7
20260505063012 48 5 6.0 11.0 0.00 0.00 0.00 93 1012.5
20260505062512 48 5 2.0 11.0 0.00 0.00 0.00 92 1012.5
20260505061512 47 15 4.0 9.0 0.00 0.00 0.00 92 1012.5
20260505060512 47 12 3.0 7.0 0.00 0.00 0.00 92 1012.5
20260505055512 47 38 1.0 6.0 0.00 0.00 0.00 91 1012.6
20260505054512 46 291 1.0 5.0 0.00 0.00 0.00 91 1012.6
20260505054012 46 276 2.0 5.0 0.00 0.00 0.00 91 1012.7
20260505053512 46 335 2.0 4.0 0.00 0.00 0.00 91 1012.7
20260505053012 46 321 2.0 3.0 0.00 0.00 0.00 91 1012.7
20260505052512 46 334 0.0 3.0 0.00 0.00 0.00 90 1012.7
20260505052012 46 321 0.0 3.0 0.00 0.00 0.00 90 1012.7
20260505051512 46 20 0.0 1.0 0.00 0.00 0.00 90 1012.6
20260505051012 46 22 0.0 0.0 0.00 0.00 0.00 90 1012.7
20260505050512 46 22 0.0 0.0 0.00 0.00 0.00 90 1012.7
20260505041512 47 18 4.0 8.0 0.00 0.00 0.00 90 1012.9
20260505041011 48 9 3.0 8.0 0.00 0.00 0.00 90 1013.0
20260505040512 48 10 1.0 5.0 0.00 0.00 0.00 89 1013.0
20260505040012 48 5 3.0 5.0 0.00 0.00 0.00 89 1012.9
20260505035512 48 5 3.0 5.0 0.00 0.00 0.00 90 1012.9
20260505035012 48 5 2.0 5.0 0.00 0.00 0.00 89 1013.0
20260505034512 48 28 1.0 3.0 0.00 0.00 0.00 89 1013.0
20260505034012 48 28 0.0 3.0 0.00 0.00 0.00 89 1013.0
20260505033511 48 29 0.0 4.0 0.00 0.00 0.00 89 1012.9
20260505033012 48 29 0.0 5.0 0.00 0.00 0.00 89 1012.9
20260505032512 48 29 0.0 5.0 0.00 0.00 0.00 89 1012.9
20260505032012 48 24 3.0 5.0 0.00 0.00 0.00 88 1012.9
20260505031512 48 22 3.0 5.0 0.00 0.00 0.00 88 1012.9
20260505031011 48 22 5.0 5.0 0.00 0.00 0.00 88 1012.9
20260505030512 48 24 3.0 5.0 0.00 0.00 0.00 88 1012.8
20260505030012 48 28 2.0 4.0 0.00 0.00 0.00 87 1012.9
20260505025513 48 26 0.0 4.0 0.00 0.00 0.00 87 1012.9
20260505025011 48 26 1.0 4.0 0.00 0.00 0.00 87 1012.8
20260505024512 49 26 2.0 4.0 0.00 0.00 0.00 87 1012.8
20260505023512 49 26 0.0 2.0 0.00 0.00 0.00 87 1012.8
20260505023012 49 26 1.0 1.0 0.00 0.00 0.00 87 1012.8
20260505022512 49 26 0.0 0.0 0.00 0.00 0.00 87 1012.9
20260505022011 50 26 0.0 0.0 0.00 0.00 0.00 87 1013.0
20260505021512 50 26 0.0 0.0 0.00 0.00 0.00 87 1013.0
20260505021011 50 26 0.0 0.0 0.00 0.00 0.00 87 1012.9
20260505020511 50 26 0.0 0.0 0.00 0.00 0.00 87 1012.9
20260505020012 50 26 0.0 1.0 0.00 0.00 0.00 87 1012.8
20260505015512 50 26 0.0 2.0 0.00 0.00 0.00 87 1012.9
20260505014512 50 26 1.0 4.0 0.00 0.00 0.00 87 1013.0
20260505014011 51 26 2.0 4.0 0.00 0.00 0.00 87 1013.1
20260505013512 51 26 2.0 3.0 0.00 0.00 0.00 87 1013.1
20260505013012 51 26 1.0 3.0 0.00 0.00 0.00 87 1013.3
20260505012011 51 26 0.0 5.0 0.00 0.00 0.00 87 1013.3
20260505011512 51 22 2.0 4.0 0.00 0.00 0.00 87 1013.3
20260505010511 51 22 0.0 3.0 0.00 0.00 0.00 87 1013.5
20260505005511 52 22 0.0 0.0 0.00 0.00 0.00 87 1013.6
20260505005011 52 22 0.0 0.0 0.00 0.00 0.00 87 1013.6
20260505004512 52 22 0.0 0.0 0.00 0.00 0.00 87 1013.6
20260505004012 52 22 0.0 1.0 0.00 0.00 0.00 87 1013.6
20260505003511 52 22 0.0 1.0 0.00 0.00 0.00 87 1013.7
20260505002011 52 22 3.0 6.0 0.00 0.00 0.00 87 1013.5
20260505001011 52 30 1.0 6.0 0.00 0.00 0.00 87 1013.6
20260505000512 53 36 2.0 6.0 0.00 0.00 0.00 87 1013.6
20260505000011 53 38 4.0 6.0 0.00 0.00 0.00 87 1013.6
20260504235512 53 34 4.0 5.0 0.00 0.00 0.00 87 1013.6
20260504235011 53 34 5.0 5.0 0.00 0.00 0.00 87 1013.8
20260504234011 53 37 3.0 6.0 0.00 0.00 0.00 87 1013.8
20260504233512 53 31 3.0 6.0 0.00 0.00 0.00 87 1013.8
20260504232511 53 29 1.0 6.0 0.00 0.00 0.00 87 1013.8
20260504232011 53 27 1.0 6.0 0.00 0.00 0.00 87 1013.8
20260504231511 53 32 4.0 5.0 0.00 0.00 0.00 87 1013.8
20260504231011 53 29 3.0 5.0 0.00 0.00 0.00 87 1013.7
20260504230512 54 49 4.0 5.0 0.00 0.00 0.00 87 1013.7
20260504230011 54 36 2.0 5.0 0.00 0.00 0.00 87 1013.7
20260504225512 54 26 2.0 5.0 0.00 0.00 0.00 87 1013.7
20260504225011 54 36 2.0 6.0 0.00 0.00 0.00 87 1013.7
20260504224512 54 38 1.0 8.0 0.00 0.00 0.00 87 1013.7
20260504224011 54 53 2.0 8.0 0.00 0.00 0.00 87 1013.7
20260504223011 54 40 4.0 8.0 0.00 0.00 0.00 86 1013.8
20260504222512 54 47 1.0 8.0 0.00 0.00 0.00 87 1013.8
20260504221511 54 48 4.0 6.0 0.00 0.00 0.00 86 1013.9
20260504221012 54 33 5.0 6.0 0.00 0.00 0.00 86 1013.9
20260504220512 54 49 2.0 6.0 0.00 0.00 0.00 86 1014.0
20260504220011 54 42 2.0 5.0 0.00 0.00 0.00 86 1013.9
20260504215512 54 39 4.0 5.0 0.00 0.00 0.00 86 1013.9
20260504215011 54 44 5.0 5.0 0.00 0.00 0.00 86 1013.9
20260504214511 54 47 3.0 4.0 0.00 0.00 0.00 86 1014.0
20260504214011 54 59 2.0 5.0 0.00 0.00 0.00 86 1014.0
20260504213511 54 60 2.0 5.0 0.00 0.00 0.00 86 1014.0
20260504213011 54 59 1.0 3.0 0.00 0.00 0.00 86 1014.0
20260504212512 54 59 1.0 3.0 0.00 0.00 0.00 86 1014.0
20260504212011 54 59 3.0 5.0 0.00 0.00 0.00 86 1014.0
20260504211511 54 59 1.0 5.0 0.00 0.00 0.00 85 1014.0
20260504211011 54 59 2.0 5.0 0.00 0.00 0.00 85 1014.0
20260504210511 54 57 1.0 5.0 0.00 0.00 0.00 85 1014.0
20260504210011 54 55 0.0 5.0 0.00 0.00 0.00 85 1014.0
20260504205512 54 50 3.0 5.0 0.00 0.00 0.00 85 1014.0
20260504204511 54 46 2.0 4.0 0.00 0.00 0.00 85 1014.1
20260504204012 54 45 1.0 3.0 0.00 0.00 0.00 85 1014.0
20260504203511 54 45 1.0 4.0 0.00 0.00 0.00 84 1014.1
20260504203011 54 45 0.0 4.0 0.00 0.00 0.00 84 1014.0
20260504202511 54 44 2.0 4.0 0.00 0.00 0.00 84 1014.0
20260504202011 55 40 2.0 4.0 0.00 0.00 0.00 84 1014.0
20260504201511 55 36 3.0 4.0 0.00 0.00 0.00 84 1013.9
20260504201011 55 37 2.0 4.0 0.00 0.00 0.00 83 1013.9
20260504200511 55 37 3.0 4.0 0.00 0.00 0.00 83 1013.9
20260504195511 55 53 3.0 3.0 0.00 0.00 0.00 83 1013.8
20260504195011 55 65 1.0 3.0 0.00 0.00 0.00 82 1013.8
20260504194511 55 67 2.0 3.0 0.00 0.00 0.00 82 1013.8
20260504194011 55 67 1.0 3.0 0.00 0.00 0.00 82 1013.7
20260504193011 56 68 0.0 3.0 0.00 0.00 0.00 83 1013.6
20260504192511 56 68 0.0 4.0 0.00 0.00 0.00 83 1013.5
20260504192011 56 30 2.0 4.0 0.00 0.00 0.00 83 1013.4
20260504191511 56 29 1.0 5.0 0.00 0.00 0.00 83 1013.4
20260504191113 56 23 2.0 5.0 0.00 0.00 0.00 83 1013.4
20260504190011 56 43 0.0 5.0 0.00 0.00 0.00 83 1013.3
20260504185011 57 31 3.0 6.0 0.00 0.00 0.00 83 1013.4
20260504184011 57 19 4.0 7.0 0.00 0.00 0.00 83 1013.4
20260504183511 57 36 4.0 7.0 0.00 0.00 0.00 83 1013.4
20260504182511 57 29 3.0 6.0 0.00 0.00 0.00 84 1013.3
20260504182011 57 33 0.0 6.0 0.00 0.00 0.00 84 1013.3
20260504181511 57 319 2.0 5.0 0.00 0.00 0.00 84 1013.3
20260504181011 57 27 1.0 5.0 0.00 0.00 0.00 84 1013.2
20260504180011 56 23 3.0 7.0 0.00 0.00 0.00 84 1013.2
20260504175511 56 36 3.0 8.0 0.00 0.00 0.00 84 1013.2
20260504175011 56 36 3.0 8.0 0.00 0.00 0.00 84 1013.2
20260504174511 57 58 5.0 7.0 0.00 0.00 0.00 83 1013.1
20260504174011 57 355 3.0 9.0 0.00 0.00 0.00 83 1013.1
20260504173511 57 21 3.0 9.0 0.00 0.00 0.00 84 1013.2
20260504173011 57 44 9.0 10.0 0.00 0.00 0.00 83 1013.1
20260504172511 57 22 9.0 11.0 0.00 0.00 0.00 84 1013.1
20260504171511 57 44 9.0 9.0 0.00 0.00 0.00 85 1013.1
20260504171011 57 61 6.0 8.0 0.00 0.00 0.00 84 1013.2
20260504170511 57 53 6.0 8.0 0.00 0.00 0.00 85 1013.4
20260504150511 59 51 9.0 13.0 0.00 0.00 0.00 81 1013.3
20260504141011 60 53 7.0 10.0 0.00 0.00 0.00 81 1013.2
20260504140510 60 36 3.0 9.0 0.00 0.00 0.00 80 1013.2
20260504130510 62 48 3.0 7.0 0.00 0.00 0.00 76 1013.1